Flag for Germany Weather past 2 weeks in Barsinghausen, Lower Saxony, Germany

Now
45 °F

Quite cool.


Feels Like: 37 °F
Forecast: 46 / 53 °F
Wind: 16 mph from Northwest

Location: Wunstorf Airport


UV Index: 0 (Low)

Visibility: 3 mi


Pressure: 29.95 "Hg

Humidity: 87%

Dew point: 41 °F

Location of BarsinghausenLocation

Historic Weather in Barsinghausen

°F

Barsinghausen temperature yesterday

Maximum temperature yesterday: 45 °F (at 12:20 AM)
Minimum temperature yesterday: 45 °F (at 12:20 AM)
Average temperature yesterday: 45 °F

Past Weeks' High & Low Weather Summary

 TemperatureHumidityPressure
High68 °F (Apr 7, 2:20 PM)100% (Apr 5, 6:20 AM)30.48 "Hg (Apr 5, 6:20 AM)
Low30 °F (Apr 16, 5:20 AM)36% (Apr 17, 2:20 PM)29.71 "Hg (Apr 8, 1:20 AM)
Average49 °F78%30.05 "Hg
* Reported Apr 5 1:20 AM — Apr 20 1:20 AM, Barsinghausen, Weather by CustomWeather, © 2014

Note: Actual official high and low records may vary slightly from our data, if they occured in-between our weather recording intervals... More about our weather records

Advertising

Historic Weather Conditions — Data for Previous 24 hours

 ConditionsComfort  
Time TempWeatherWind HumidityBarometerVisibility
1:20 AM
Apr 20
45 °FQuite cool.16 mph87%29.98 "Hg2 mi
12:20 AM45 °FQuite cool.16 mph87%29.98 "Hg2 mi
11:20 PM
Apr 19
45 °FQuite cool.16 mph87%29.98 "Hg2 mi
10:20 PM45 °FQuite cool.16 mph87%30.01 "Hg2 mi
9:20 PM45 °FQuite cool.16 mph87%30.01 "Hg2 mi
8:20 PM45 °FQuite cool.16 mph87%30.01 "Hg3 mi
7:20 PM45 °FQuite cool.16 mph87%29.98 "Hg3 mi
6:20 PM45 °FQuite cool.16 mph87%30.01 "Hg3 mi
5:20 PM45 °FQuite cool.16 mph87%30.01 "Hg3 mi
4:20 PM45 °FQuite cool.16 mph87%30.04 "Hg3 mi
3:20 PM45 °FQuite cool.16 mph87%30.07 "Hg3 mi
2:20 PM45 °FQuite cool.16 mph87%30.09 "Hg3 mi
1:20 PM45 °FQuite cool.16 mph87%30.12 "Hg3 mi
12:20 PM45 °FQuite cool.16 mph87%30.12 "Hg3 mi
11:20 AM45 °FQuite cool.16 mph87%30.12 "Hg3 mi
10:20 AM45 °FQuite cool.16 mph87%30.12 "Hg2 mi
9:20 AM45 °FQuite cool.16 mph87%30.12 "Hg2 mi
8:20 AM45 °FQuite cool.16 mph87%30.12 "Hg2 mi
7:20 AM45 °FQuite cool.16 mph87%30.09 "Hg1 mi
6:20 AM45 °FQuite cool.16 mph87%30.07 "Hg2 mi
5:20 AM45 °FQuite cool.16 mph87%30.07 "Hg1 mi
4:20 AM45 °FQuite cool.16 mph87%30.04 "Hg0 mi
3:20 AM45 °FQuite cool.16 mph87%30.01 "Hg1 mi
2:20 AM45 °FQuite cool.16 mph87%30.01 "Hg3 mi
Weather by CustomWeather, © 2014

See weather overview